Regional Weather Roundup
Issued by NWS Upton, NY

Home | Current Version | Previous Version | Text Only | Print | Product List | Glossary On
Versions: 1 2 3 4 5 6 7 8 9 10 11 12 13 14 15 16 17 18 19 20 21 22 23 24 25 26 27 28 29 30 31 32 33 34 35 36 37 38 39 40 41 42 43 44 45 46 47 48 49 50
000
ASUS41 KOKX 281905
RWROKX

REGIONAL WEATHER ROUNDUP
NATIONAL WEATHER SERVICE NEW YORK NY
300 PM EDT MON JUL 28 2014

NOTE: "FAIR" INDICATES FEW OR NO CLOUDS BELOW 12,000 FEET WITH NO
SIGNIFICANT WEATHER AND/OR OBSTRUCTIONS TO VISIBILITY.

NYZ071-072-176-178-NJZ106-104-282000-
NEW YORK CITY METRO AREA


CITY           SKY/WX    TMP DP  RH WIND       PRES   REMARKS
CENTRAL PARK   PTSUNNY   79  61  53 VRB5      29.55S
LAGUARDIA APRT PTSUNNY   84  60  44 SW10G24   29.51S
KENNEDY INTL   MOSUNNY   84  63  49 SW21      29.53S
NEWARK/LIBERTY LGT RAIN  83  61  47 W21G26    29.53R
BRNX BOT. GARD   N/A     82  61  47 W20       29.55R
TETERBORO      PTSUNNY   86  60  41 SW14G24   29.51R
$$

NYZ177-179-078>081-282000-
LONG ISLAND NEW YORK

CITY           SKY/WX    TMP DP  RH WIND       PRES   REMARKS
FARMINGDALE    MOSUNNY   83  64  52 SW18G24   29.53R
ISLIP          MOSUNNY   84  65  52 SW17G26   29.50S
SHIRLEY        SUNNY     82  66  58 SW16G25   29.53S
WESTHAMPTON    SUNNY     81  66  60 SW15G25   29.54S
MONTAUK POINT    N/A     80  70  71 SW10G17   29.53F
$$

NYZ052-065-067-282000-
HUDSON VALLEY

CITY           SKY/WX    TMP DP  RH WIND       PRES   REMARKS
WHITE PLAINS   PTSUNNY   81  61  50 SW9G21    29.52R
NEWBURGH       PTSUNNY   81  64  57 W17G23    29.50
MONTGOMERY     MOSUNNY   80  63  55 SW18G25   29.50R
POUGHKEEPSIE   MOSUNNY   82  62  50 SW14G21   29.47S
ALBANY         CLOUDY    73  64  73 N3        29.48R THUNDER
$$

NJZ001-105-106-008-010-013-015-019>022-104-282000-
NEW JERSEY

CITY           SKY/WX    TMP DP  RH WIND       PRES   REMARKS
NEWARK/LIBERTY LGT RAIN  83  61  47 W21G26    29.53R
TETERBORO      PTSUNNY   86  60  41 SW14G24   29.51R
CALDWELL       MOSUNNY   81  60  48 W8G20     29.53R
MORRISTOWN     NOT AVBL
SOMERVILLE     MOSUNNY   81  61  50 W8G22     29.54R
LINDEN         MOCLDY    83  61  47 NW18      29.55S
SUSSEX         MOSUNNY   78  62  57 SW8       29.54R
ANDOVER          N/A     77  61  57 NW8       29.57R
TRENTON        MOSUNNY   82  59  45 MISG      29.57R
MILLVILLE      MOSUNNY   83  61  47 W15G24    29.62S
ATLANTIC CITY  MOSUNNY   82  61  48 W17G23    29.60R
WRIGHTSTOWN    MOSUNNY   82  61  48 W20       29.56R
TOMS RIVER     SUNNY     82  64  54 W14G23    29.58S
BELMAR         MOSUNNY   82  63  51 W14G21    29.56S
$$

PAZ047>061-062-071-282000-
EASTERN PENNSYLVANIA

CITY           SKY/WX    TMP DP  RH WIND       PRES   REMARKS
PHILADELPHIA   PTSUNNY   83  59  44 W26       29.60S
ALLENTOWN      MOSUNNY   81  59  47 W17G26    29.57S
SCRANTON       PTSUNNY   78  57  48 SW15G23   29.56F
$$

CTZ002-004>006-009-010-012-RIZ004-006-007-MAZ004-011-015-282000-
SOUTHERN NEW ENGLAND
 IN CT

CITY           SKY/WX    TMP DP  RH WIND       PRES   REMARKS
BRADLEY INTL   PTSUNNY   84  68  58 S14       29.45F
HARTFORD       PTSUNNY   82  67  60 S13       29.45F
DANBURY        MOSUNNY   80  63  55 SW15      29.51F
WTRBRY/OXFORD  PTSUNNY   79  66  65 SW9G16    29.53S
BRIDGEPORT     SUNNY     82  67  60 SW14      29.50F
MERIDEN        PTSUNNY   82  66  58 S15       29.48F
NEW HAVEN      MOSUNNY   81  67  62 SW8G16    29.50S
CHESTER        FAIR      81  66  61 SW8       29.52S
GROTON         MOSUNNY   76  71  85 S8        29.50F
WILLIMANTIC    PTSUNNY   82  68  62 S14G20    29.49F

 IN RI

CITY           SKY/WX    TMP DP  RH WIND       PRES   REMARKS
PROVIDENCE     PTSUNNY   78  71  79 SE10      29.52S
BLOCK ISLAND   MOSUNNY   79  72  78 SW16      29.54S
WESTERLY       SUNNY     80  71  74 S14       29.52S

 IN MA

CITY           SKY/WX    TMP DP  RH WIND       PRES   REMARKS
BOSTON         MOSUNNY   83  68  60 S15       29.48F
WORCESTER      PTSUNNY   77  67  71 SW13      29.51F
WESTFIELD      MOSUNNY   83  67  58 S13       29.45F
PROVINCETOWN   MOSUNNY   81  73  78 S16G22    29.52F
NANTUCKET      CLOUDY    73  70  88 S10       29.54F
$$

ANZ330-335-338-340-345-350-353-355-282000-
COASTAL MARINE OBSERVATIONS


STATION/POSITION TIME  SKY/WX   TEMP    WIND        PRES    VSBY  WAVE
                                AIR SEA DIR/SP/G                  HT/PER
                 (UTC)          (F)     (DEG/KT/KT) (MB)    (MI)  (FT/S)
NY HARB ENTRANCE NOT AVBL
4S FIRE IS       NOT AVBL
23SW MTP         1900            74 71               999.7          4/ 6
HUDSON CANYON    1900            76 75  230/ 14/ 17 1001.8          5/ 7
EXECUTION ROCKS  1900            79 72  250/ 16/ 23   N/A
WESTERN LI SOUND 1900            77     220/ 12/ 14   N/A           0
CENTRAL LI SOUND 1900            75 74  250/  8/ 10   N/A           1
EASTERN LI SOUND 1800            73 70  200/  6/  8   N/A
ROBBINS REEF     1900            80     250/ 23/ 26   N/A
$$


>>>>>>>>>>>>>>>>>>>>>>>>>>>> KEY <<<<<<<<<<<<<<<<<<<<<<<<<<<
>                                                          <
>     SKY/WX - SKY CONDITION/PRESENT WEATHER               <
>     TMP    - TEMPERATURE IN FAHRENHEIT                   <
>     DP     - DEWPOINT IN FAHRENHEIT                      <
>     RH     - RELATIVE HUMIDITY IN PERCENT                <
>     WIND   - DIRECTION AND SPEED IN MPH                  <
>     PRES   - MEAN SEA LEVEL PRESSURE IN INCHES OF HG     <
>     WCI    - WIND CHILL INDEX                            <
>     VSB    - VISIBILITY IN MILES                         <
>     HX     - HEAT INDEX                                  <
>     TC     - TEMPERATURE IN CELSIUS                      <
>     VRB    - VARIABLE WIND DIRECTION                     <
>                                                          <
>>>>>>>>>>>>>>>>>>>>>>>>>>>> KEY <<<<<<<<<<<<<<<<<<<<<<<<<<<




USA.gov is the U.S. government's official web portal to all federal, state and local government web resources and services.